Buffalo, NY

8:43 AM EST on December 08, 2019 (GMT -0500)
Buffalo Niagara International

Weather History for KBUF - July, 2019

Change the Weather History Date:

Friday, July 12, 2019

  Actual Average Record
Temperature  
Mean Temperature 67 °F 71 °F  
Max Temperature 72 °F 80 °F 96 °F (1936)
Min Temperature 62 °F 62 °F 48 °F (1898)
Degree Days  
Heating Degree Days 0 0  
Month to date heating degree days 0 2  
Since 1 June heating degree days 62 66  
Since 1 July heating degree days 0 2  
Cooling Degree Days 2 7  
Month to date cooling degree days 101 73  
Year to date cooling degree days 184 202  
Since 1 June cooling degree days 176 176  
Growing Degree Days 17 (Base 50)    
Moisture  
Dew Point 59 °F    
Average Humidity 74    
Maximum Humidity 81    
Minimum Humidity 66    
Precipitation  
Precipitation T in 0.09 in 1.79 in (2006)
Month to date precipitation 0.62 1.18  
Year to date precipitation 23.54 19.85  
Snow  
Snow 0.00 in 0.00 in 0.00 in ()
Month to date snowfall 0.0 0.0  
Since 1 June snowfall 0.0 0.0  
Since 1 July snowfall 0.0 0.0  
Snow Depth 0.00 in    
Sea Level Pressure  
Sea Level Pressure 29.86 in    
Wind  
Wind Speed 9 mph (West)    
Max Wind Speed 15 mph    
Max Gust Speed 20 mph    
Visibility 10 miles    
Events      
T = Trace of Precipitation, MM = Missing Value Source: NWS Daily Summary

Daily Weather History Graph

Daily Weather History Graph

Search for Another Location

Airport or City:

Astronomy

Jul. 12, 2019 Rise Set
Actual Time 5:46 AM EDT 8:53 PM EDT
Civil Twilight 5:12 AM EDT 9:28 PM EDT
Nautical Twilight 4:28 AM EDT 10:11 PM EDT
Astronomical Twilight 3:35 AM EDT 11:04 PM EDT
Moon 5:08 PM EDT (7/12) 2:32 AM EDT (7/12)
Length of Visible Light 16h 15m
Length of Day
15h 06m
Waxing Gibbous, 82% of the Moon is Illuminated
Jul 12
Waxing Gibbous
Jul 16
Full
Jul 24
Last Quarter
Jul 31
New
Aug 7
First Quarter

Hourly Weather History & Observations

Time (EDT) Temp. Dew Point Humidity Pressure Visibility Wind Dir Wind Speed Gust Speed Precip Events Conditions
12:54 AM 66.0 °F 55.0 °F 68% 29.79 in 10.0 mi NW 9.2 mph - N/A   Partly Cloudy
1:54 AM 64.9 °F 55.0 °F 70% 29.80 in 10.0 mi WNW 10.4 mph - N/A   Scattered Clouds
2:54 AM 63.0 °F 55.0 °F 75% 29.80 in 10.0 mi WNW 5.8 mph - N/A   Mostly Cloudy
3:54 AM 63.0 °F 55.9 °F 78% 29.81 in 10.0 mi WSW 5.8 mph - N/A   Mostly Cloudy
4:09 AM 63.0 °F 55.9 °F 78% 29.81 in 10.0 mi West 8.1 mph - N/A   Overcast
4:54 AM 64.0 °F 55.0 °F 73% 29.81 in 10.0 mi West 9.2 mph - N/A   Mostly Cloudy
5:54 AM 64.0 °F 55.9 °F 75% 29.81 in 10.0 mi WSW 9.2 mph - N/A   Overcast
6:54 AM 64.0 °F 57.9 °F 80% 29.83 in 10.0 mi WNW 9.2 mph - N/A   Overcast
7:07 AM 64.0 °F 57.9 °F 80% 29.84 in 10.0 mi West 9.2 mph - N/A   Overcast
7:36 AM 64.9 °F 57.9 °F 78% 29.84 in 10.0 mi West 11.5 mph - N/A   Overcast
7:54 AM 64.9 °F 57.9 °F 78% 29.84 in 10.0 mi West 10.4 mph - N/A   Overcast
8:20 AM 64.9 °F 59.0 °F 81% 29.86 in 10.0 mi West 11.5 mph - N/A   Overcast
8:54 AM 66.0 °F 59.0 °F 78% 29.85 in 10.0 mi West 9.2 mph - N/A   Overcast
9:54 AM 66.9 °F 60.1 °F 79% 29.86 in 10.0 mi West 8.1 mph - N/A   Overcast
10:32 AM 68.0 °F 60.1 °F 76% 29.87 in 10.0 mi West 11.5 mph - N/A   Overcast
10:54 AM 69.1 °F 61.0 °F 75% 29.86 in 10.0 mi West 8.1 mph - N/A   Overcast
11:54 AM 69.1 °F 61.0 °F 75% 29.87 in 10.0 mi SW 11.5 mph - N/A   Overcast
12:26 PM 69.1 °F 61.0 °F 75% 29.89 in 10.0 mi SW 10.4 mph - N/A   Overcast
12:50 PM 69.8 °F 60.8 °F 73% 29.89 in 10.0 mi WSW 12.7 mph - N/A   Overcast
12:54 PM 70.0 °F 61.0 °F 73% 29.88 in 10.0 mi WSW 10.4 mph - N/A   Overcast
1:03 PM 70.0 °F 62.1 °F 76% 29.89 in 10.0 mi SW 10.4 mph - N/A   Overcast
1:54 PM 72.0 °F 62.1 °F 71% 29.88 in 10.0 mi West 12.7 mph - N/A   Overcast
2:39 PM 69.1 °F 61.0 °F 75% 29.89 in 10.0 mi WSW 12.7 mph - N/A   Overcast
2:54 PM 71.1 °F 60.1 °F 68% 29.89 in 10.0 mi West 5.8 mph - N/A   Overcast
3:54 PM 71.1 °F 62.1 °F 73% 29.89 in 10.0 mi SW 12.7 mph - N/A   Overcast
4:54 PM 71.1 °F 59.0 °F 66% 29.88 in 10.0 mi WNW 5.8 mph - 0.00 in   Overcast
5:54 PM 71.1 °F 60.1 °F 68% 29.88 in 10.0 mi West 11.5 mph - N/A   Overcast
6:21 PM 71.1 °F 59.0 °F 66% 29.89 in 10.0 mi WSW 11.5 mph - N/A   Overcast
6:54 PM 71.1 °F 59.0 °F 66% 29.89 in 10.0 mi SW 13.8 mph - N/A   Overcast
7:54 PM 70.0 °F 59.0 °F 68% 29.89 in 10.0 mi SW 10.4 mph - N/A   Mostly Cloudy
8:54 PM 70.0 °F 57.9 °F 65% 29.91 in 10.0 mi West 9.2 mph - N/A   Mostly Cloudy
9:54 PM 68.0 °F 57.0 °F 68% 29.92 in 10.0 mi West 6.9 mph - N/A   Mostly Cloudy
10:54 PM 66.9 °F 57.0 °F 70% 29.92 in 10.0 mi WSW 6.9 mph - N/A   Scattered Clouds
11:54 PM 66.0 °F 57.0 °F 73% 29.92 in 10.0 mi SW 5.8 mph - N/A   Scattered Clouds